When you browse on this site, cookies collect data to enhance your experience and personalize the content and advertising you see.
Visit our Privacy Policy to learn more. By continuing to use the site, you agree to this use of cookies and data.
EN

Hourly Weather Moyomamba

Today, 4 July, Saturday

Time Temperature Precipitation Wind Pressure Humidity
00:00 +18°C° 0.2 mm 0 mps 681 mmHg 98%
01:00 +18°C° 0 mm 0 mps 681 mmHg 98%
02:00 +18°C° 0.4 mm 0 mps 681 mmHg 98%
03:00 +18°C° 0.4 mm 0 mps 681 mmHg 98%
04:00 +18°C° 0.4 mm 0 mps 680 mmHg 98%
05:00 +18°C° 0.1 mm 0 mps 681 mmHg 98%
06:00 +18°C° 0.1 mm 0 mps 681 mmHg 98%
07:00 +18°C° 0.1 mm 0 mps 682 mmHg 98%
08:00 +19°C° 0.2 mm 0 mps 682 mmHg 95%
09:00 +21°C° 0.2 mm 0 mps 683 mmHg 91%
10:00 +22°C° 0.2 mm 0 mps 684 mmHg 88%
11:00 +22°C° 1 mm 0 mps 683 mmHg 89%
12:00 +22°C° 1 mm 0 mps 682 mmHg 91%
13:00 +22°C° 1 mm 0 mps 681 mmHg 92%
14:00 +23°C° 1 mm 0 mps 681 mmHg 91%
15:00 +23°C° 1 mm 0 mps 680 mmHg 90%
16:00 +23°C° 1 mm 0 mps 679 mmHg 89%
17:00 +22°C° 0.2 mm 0 mps 679 mmHg 92%
18:00 +21°C° 0.2 mm 0 mps 679 mmHg 95%
19:00 +20°C° 0.2 mm 0 mps 679 mmHg 98%
20:00 +19°C° 0 mm 0 mps 680 mmHg 98%
21:00 +19°C° 0 mm 0 mps 681 mmHg 98%
22:00 +18°C° 0 mm 0 mps 681 mmHg 98%
23:00 +18°C° 0 mm 0 mps 681 mmHg 98%

Tomorrow, 5 July, Sunday

Time Temperature Precipitation Wind Pressure Humidity
00:00 +18°C° 0 mm 0 mps 681 mmHg 98%
01:00 +18°C° 0 mm 0 mps 681 mmHg 98%
02:00 +18°C° 0 mm 0 mps 681 mmHg 98%
03:00 +18°C° 0 mm 0 mps 680 mmHg 98%
04:00 +18°C° 0 mm 0 mps 680 mmHg 98%
05:00 +18°C° 0 mm 0 mps 680 mmHg 98%
06:00 +18°C° 0 mm 0 mps 681 mmHg 97%
07:00 +18°C° 0 mm 0 mps 681 mmHg 97%
08:00 +20°C° 0 mm 0 mps 682 mmHg 89%
09:00 +22°C° 0 mm 0 mps 683 mmHg 81%
10:00 +26°C° 0 mm 1 mps 683 mmHg 73%
11:00 +27°C° 0.5 mm 1 mps 682 mmHg 71%
12:00 +28°C° 0.5 mm 1 mps 682 mmHg 69%
13:00 +29°C° 0.5 mm 1 mps 681 mmHg 67%
14:00 +28°C° 0.8 mm 1 mps 680 mmHg 74%
15:00 +27°C° 0.8 mm 1 mps 679 mmHg 81%
16:00 +26°C° 0.8 mm 1 mps 678 mmHg 88%
17:00 +23°C° 0.5 mm 0 mps 679 mmHg 91%
18:00 +21°C° 0.5 mm 0 mps 679 mmHg 94%
19:00 +20°C° 0.5 mm 0 mps 680 mmHg 97%
20:00 +20°C° 0.2 mm 0 mps 680 mmHg 97%
21:00 +19°C° 0.2 mm 0 mps 681 mmHg 97%
22:00 +19°C° 0.2 mm 0 mps 681 mmHg 97%
23:00 +19°C° 0.2 mm 0 mps 681 mmHg 97%

Day after tomorrow, 6 July, Monday

Time Temperature Precipitation Wind Pressure Humidity
00:00 +19°C° 0.2 mm 0 mps 681 mmHg 97%
01:00 +18°C° 0.2 mm 0 mps 681 mmHg 97%
02:00 +18°C° 0.1 mm 0 mps 681 mmHg 97%
03:00 +18°C° 0.1 mm 0 mps 680 mmHg 97%
04:00 +18°C° 0.1 mm 0 mps 680 mmHg 97%
05:00 +18°C° 0.1 mm 0 mps 681 mmHg 97%
06:00 +18°C° 0.1 mm 0 mps 681 mmHg 97%
07:00 +18°C° 0.1 mm 0 mps 682 mmHg 97%
08:00 +20°C° 0.2 mm 0 mps 682 mmHg 93%
09:00 +21°C° 0.2 mm 0 mps 683 mmHg 89%
10:00 +23°C° 0.2 mm 0 mps 684 mmHg 85%
11:00 +24°C° 0.7 mm 0 mps 683 mmHg 80%
12:00 +25°C° 0.7 mm 0 mps 682 mmHg 75%
13:00 +27°C° 0.7 mm 0 mps 682 mmHg 70%
14:00 +26°C° 0.9 mm 0 mps 681 mmHg 76%
15:00 +27°C° 0.9 mm 1 mps 680 mmHg 83%
16:00 +26°C° 0.9 mm 1 mps 680 mmHg 89%
17:00 +25°C° 0.5 mm 1 mps 680 mmHg 92%
18:00 +21°C° 0.5 mm 0 mps 680 mmHg 95%
19:00 +20°C° 0.5 mm 0 mps 680 mmHg 98%
20:00 +19°C° 0.2 mm 0 mps 681 mmHg 98%
21:00 +19°C° 0.2 mm 0 mps 681 mmHg 98%
22:00 +19°C° 0.2 mm 0 mps 682 mmHg 98%
23:00 +18°C° 0 mm 0 mps 682 mmHg 98%

7 July, Tuesday

Time Temperature Precipitation Wind Pressure Humidity
00:00 +18°C° 0 mm 0 mps 681 mmHg 98%
01:00 +18°C° 0 mm 0 mps 681 mmHg 98%
02:00 +18°C° 0 mm 0 mps 681 mmHg 98%
03:00 +18°C° 0 mm 0 mps 681 mmHg 98%
04:00 +18°C° 0 mm 0 mps 681 mmHg 98%
05:00 +18°C° 0 mm 0 mps 681 mmHg 98%
06:00 +18°C° 0 mm 0 mps 681 mmHg 98%
07:00 +18°C° 0 mm 0 mps 682 mmHg 98%
08:00 +20°C° 0 mm 0 mps 682 mmHg 93%
09:00 +21°C° 0 mm 0 mps 683 mmHg 88%
10:00 +22°C° 0 mm 0 mps 683 mmHg 83%
11:00 +26°C° 0.3 mm 1 mps 683 mmHg 77%
12:00 +27°C° 0.3 mm 1 mps 682 mmHg 70%
13:00 +28°C° 0.3 mm 1 mps 682 mmHg 64%
14:00 +28°C° 0.4 mm 1 mps 681 mmHg 69%
15:00 +27°C° 0.4 mm 1 mps 680 mmHg 75%
16:00 +27°C° 0.4 mm 1 mps 679 mmHg 80%
17:00 +25°C° 0.4 mm 1 mps 679 mmHg 86%
18:00 +24°C° 0.4 mm 1 mps 679 mmHg 92%
19:00 +20°C° 0.4 mm 0 mps 680 mmHg 98%
20:00 +20°C° 0.3 mm 0 mps 680 mmHg 98%
21:00 +19°C° 0.3 mm 0 mps 681 mmHg 98%
22:00 +19°C° 0.3 mm 0 mps 681 mmHg 98%
23:00 +19°C° 0 mm 0 mps 681 mmHg 98%

8 July, Wednesday

Time Temperature Precipitation Wind Pressure Humidity
00:00 +18°C° 0 mm 0 mps 681 mmHg 98%
01:00 +18°C° 0 mm 0 mps 681 mmHg 98%
02:00 +18°C° 0 mm 0 mps 680 mmHg 98%
03:00 +18°C° 0 mm 0 mps 680 mmHg 98%
04:00 +18°C° 0 mm 0 mps 680 mmHg 98%
05:00 +18°C° 0 mm 0 mps 680 mmHg 98%
06:00 +18°C° 0 mm 0 mps 681 mmHg 98%
07:00 +18°C° 0 mm 0 mps 681 mmHg 98%
08:00 +20°C° 0 mm 0 mps 682 mmHg 91%
09:00 +22°C° 0 mm 0 mps 682 mmHg 83%
10:00 +25°C° 0 mm 1 mps 683 mmHg 76%
11:00 +26°C° 0.4 mm 1 mps 682 mmHg 74%
12:00 +27°C° 0.4 mm 1 mps 682 mmHg 72%
13:00 +28°C° 0.4 mm 1 mps 681 mmHg 69%
14:00 +27°C° 0.7 mm 1 mps 681 mmHg 76%
15:00 +26°C° 0.7 mm 1 mps 680 mmHg 83%
16:00 +25°C° 0.7 mm 1 mps 679 mmHg 90%
17:00 +24°C° 0.4 mm 1 mps 680 mmHg 93%
18:00 +21°C° 0.4 mm 0 mps 680 mmHg 95%
19:00 +19°C° 0.4 mm 0 mps 680 mmHg 97%
20:00 +19°C° 0.1 mm 0 mps 680 mmHg 97%
21:00 +18°C° 0.1 mm 0 mps 681 mmHg 97%
22:00 +18°C° 0.1 mm 0 mps 681 mmHg 97%
23:00 +18°C° 0 mm 0 mps 681 mmHg 97%

9 July, Thursday

Time Temperature Precipitation Wind Pressure Humidity
00:00 +17°C° 0 mm 0 mps 681 mmHg 97%
01:00 +17°C° 0 mm 0 mps 681 mmHg 97%
02:00 +17°C° 0 mm 0 mps 681 mmHg 97%
03:00 +18°C° 0 mm 0 mps 681 mmHg 96%
04:00 +18°C° 0 mm 0 mps 681 mmHg 96%
05:00 +18°C° 0 mm 0 mps 681 mmHg 95%
06:00 +18°C° 0 mm 0 mps 681 mmHg 95%
07:00 +18°C° 0 mm 0 mps 682 mmHg 94%
08:00 +20°C° 0.2 mm 0 mps 682 mmHg 89%
09:00 +21°C° 0.2 mm 0 mps 683 mmHg 84%
10:00 +23°C° 0.2 mm 0 mps 684 mmHg 79%
11:00 +23°C° 0.8 mm 0 mps 683 mmHg 79%
12:00 +25°C° 0.8 mm 1 mps 683 mmHg 80%
13:00 +26°C° 0.8 mm 1 mps 682 mmHg 80%
14:00 +23°C° 0.7 mm 0 mps 682 mmHg 85%
15:00 +22°C° 0.7 mm 0 mps 681 mmHg 90%
16:00 +21°C° 0.7 mm 0 mps 680 mmHg 95%
17:00 +20°C° 0.1 mm 0 mps 680 mmHg 96%
18:00 +19°C° 0.1 mm 0 mps 680 mmHg 97%
19:00 +19°C° 0.1 mm 0 mps 681 mmHg 97%
20:00 +18°C° 0.1 mm 0 mps 681 mmHg 97%
21:00 +18°C° 0.1 mm 0 mps 682 mmHg 97%
22:00 +18°C° 0.1 mm 0 mps 682 mmHg 96%
23:00 +18°C° 0 mm 0 mps 682 mmHg 97%
Show more